Regional Weather Roundup
Issued by NWS Midland/Odessa, TX

Skip options and go directly to product.
Home | Oldest Version | Previous Version | Current Version | All | Text Only | Save Text | Print | Product List | Glossary Off

Skip product version selection by date and time.   

083
ASUS44 KMAF 200710
RWRMAF
MIDLAND AREA WEATHER ROUNDUP
NATIONAL WEATHER SERVICE MIDLAND TX
100 AM CST SAT DEC 20 2014

...IN SOUTHWEST TEXAS AND SOUTHEAST NEW MEXICO...

CITY           SKY/WX    TMP DP  RH WIND       PRES   REMARKS
ALPINE         PTCLDY    33  27  79 SW8       30.23S WCI  26
ANDREWS        FOG       32  32 100 SE5       30.17F VSB 1/4 WCI  28
ARTESIA        CLEAR     32  27  80 W12       30.15F WCI  23
BIG SPRING     CLEAR     37  34  91 CALM      30.20F
CARLSBAD       CLEAR     36  25  64 NW3       30.12F
DRYDEN           N/A     46  40  79 N10       30.14F
FORT STOCKTON  CLEAR     43  33  68 S9        30.15F WCI  38
GUAD PASS      NOT AVBL
HOBBS          FOG       36  36 100 SE7       30.16F VSB 1/2 WCI  30
MARFA          PTCLDY    27  21  80 N7        30.18F WCI  19
MIDLAND AIRPK  CLEAR     37  35  92 CALM      30.18F
MIDLAND INTL   CLEAR     36  34  92 E5        30.16F FOG     WCI  32
ODESSA         CLEAR     35  33  92 E7        30.17S FOG     WCI  29
PECOS          CLEAR     36  29  73 NE7       30.16F WCI  31
PRESIDIO       FAIR      47  30  52 N3        30.13S
SEMINOLE       CLOUDY    35  34  99 CALM      30.18S FOG
SNYDER         CLOUDY    42  37  83 CALM      30.19S
WINK           CLEAR     34  29  82 NE5       30.15F WCI  30
$$
...OTHER STATIONS IN TEXAS...

CITY           SKY/WX    TMP DP  RH WIND       PRES   REMARKS
ABILENE        CLOUDY    45  41  86 CALM      30.20F
AMARILLO       CLOUDY    36  34  92 S9        30.13F WCI  29
AUSTIN         CLOUDY    50  45  83 N8        30.18F
BROWNSVILLE    CLOUDY    61  57  87 N7        30.08F
CORPUS CHRISTI CLOUDY    56  52  86 N14       30.12F
DALLAS FTW     CLOUDY    46  42  86 N7        30.20F
DEL RIO        CLEAR     54  49  83 E7        30.14F
EL PASO        CLEAR     36  27  69 CALM      30.17S
HOUSTON INT    CLOUDY    52  50  93 N13       30.14S
LUBBOCK        CLOUDY    38  36  92 S7        30.16S WCI  33
SAN ANGELO     CLEAR     40  37  89 CALM      30.18S
SAN ANTONIO    CLOUDY    50  45  83 N14       30.18R
WACO           CLOUDY    48  46  93 N7        30.19F
WICHITA FALLS  NOT AVBL
$$
...OTHER LOCATIONS IN NEW MEXICO...

CITY           SKY/WX    TMP DP  RH WIND       PRES   REMARKS
ALAMAGORDO     CLEAR     32  27  80 CALM      30.17S
ALBUQUERQUE    PTCLDY    33  24  69 N6        30.20F WCI  28
CANNON AFB     CLOUDY    32  32  99 S8        30.12F FOG     WCI  25
CLOVIS         CLOUDY    32  30  93 S10       30.12F VSB 1/2 WCI  24
HOLLOMAN AFB   CLEAR     30  26  85 NE6       30.16S WCI  24
ROSWELL        CLEAR     31  20  63 CALM      30.13F
RUIDOSO        PTCLDY    27  16  63 W6        30.16F WCI  20
SANTA FE       PTCLDY    27  18  69 NW10      30.16S WCI  17
TRUTH OR CONSE CLEAR     30  23  75 W5        30.18S WCI  25
TUCUMCARI      PTCLDY    28  26  92 S5        30.08F WCI  23
$$

USA.gov is the U.S. government's official web portal to all federal, state and local government web resources and services.